sat.trackr.live / text

‹ back to catalog

STARLINK-3696

NORAD 51965 · 2022-025K

PAYLOAD ACTIVE UNKNOWN

§ Identity

Operator
Country
US
Launch date
2022-03-09
Launch site
AFETR
Launch vehicle
Mass (kg)
RCS (m²)

Purposes: comms

External: N2YO · Heavens-Above · Gunter

§ Orbital elements

Epoch: 2026-09-19T11:54:19.386144Z

Period
94.01 min
Inclination
53.1595°
Eccentricity
0.0001434
Mean motion
15.31703800 rev/d
Perigee alt
469.7 km
Apogee alt
471.7 km
Semi-major
6,848.9 km
B*
1.7432e-5
RAAN
215.2909°
Arg perigee
87.1704°
Mean anomaly
272.9461°
Rev number
25,052

§ Raw data

STARLINK-36961 51965U 22025K   26262.49605771  .00000176  00000+0  17432-4 0  99982 51965  53.1595 215.2909 0001434  87.1704 272.9461 15.31703800250526

JSON: /api/v1/satellites/51965 · /tle

For live sub-satellite position, see the globe view (requires WebGL).

§ Visibility from observer

Set your observer location to see the next 7 days of passes ≥ 10°. The values pass through the URL so the page stays shareable.

No JS? Fill the form by hand. The geolocation button needs JavaScript.